Temp_Advection
nan nan nan nan nan nan nan nan nan nan nan nan nan nan nan nan nan nan nan nan nan nan nan nan nan nan nan nan nan nan nan nan nan nan nan nan nan nan nan nan nan nan nan nan
nan -1 -1 -1 -1 -1 -2 -1 -0 -0 -1 -0 0 0 0 -0 -0 -0 -0 -0 -0 -0 -0 -0 -0 0 -0 0 -0 -0 0 0 0 -0 0 -0 -0 -0 -0 0 0 0 -0 nan
nan -1 -1 -1 -1 -1 -1 -0 -0 -1 -2 -0 -0 0 -0 -0 -0 -0 -0 -0 -0 -0 -0 -0 -0 -0 -0 -0 -0 -0 -0 -0 -0 0 0 -0 0 0 -0 1 0 -0 0 nan
nan -0 -0 -0 -1 -1 -1 -1 -0 -0 -0 -0 -0 -0 -0 -0 0 -0 -0 -0 -0 -0 -0 -0 -0 -0 -0 -0 -0 -0 -0 0 -0 -0 -0 -0 -0 -0 -0 -0 0 0 0 nan
nan -0 -0 -0 -0 -1 -0 -0 0 0 0 -0 -0 -0 -0 -0 -0 -0 0 -0 -0 -0 -0 0 0 0 0 -0 -0 -0 -0 -0 0 -0 -0 -0 -0 -0 -1 -1 -0 -0 -0 nan
nan -0 -0 -0 -0 -0 -0 -0 0 0 0 0 0 -0 -0 -0 -0 -0 -0 -0 -0 -0 0 -0 -0 -0 -0 0 -0 -0 -0 0 0 -0 -0 -0 -0 0 -0 -0 -0 0 -0 nan
nan -0 -0 -0 -0 0 -0 0 0 -0 -0 0 0 0 -0 -0 -0 0 0 -0 -0 -0 0 -0 -0 0 -0 -0 0 0 -0 -0 0 -0 -0 -0 -0 -0 -0 -0 -0 -0 -0 nan
nan -1 -1 -1 -1 -0 0 -0 0 0 0 -0 -0 -0 -0 -0 -0 0 -0 -0 0 0 -0 -0 -0 -0 -0 -0 0 -0 -0 -0 0 0 0 -0 0 0 -0 -0 0 -0 -0 nan
nan -1 -1 -1 -1 -0 -0 -0 -0 0 -0 -0 -0 -0 -0 -0 -0 -0 -0 -0 -0 0 -0 -0 -0 -0 0 -0 -0 -0 -0 -0 0 0 0 0 0 -0 0 -0 -0 -0 -0 nan
nan -1 -1 -0 -0 -0 -0 -0 -0 -0 -0 -0 -0 -0 -0 0 -0 0 -0 -0 -0 -0 -0 -0 -0 -0 -0 -0 -0 -0 -0 0 0 0 0 -0 -0 -0 -0 -0 -0 -0 -0 nan
nan -1 -1 -1 -0 -0 -0 -0 -0 -0 -0 -0 -0 -0 0 -0 -0 0 -0 -0 -0 -0 -0 0 0 -0 0 -0 0 0 0 -0 -0 -0 0 -0 -0 -0 -0 -0 -0 -0 -0 nan
nan -0 -1 -0 -0 -0 -0 -0 -0 -0 -0 -0 -0 -0 -0 -0 -0 0 -0 0 0 -0 -0 0 0 -0 -0 0 -0 -0 -0 -0 0 0 -0 -0 -0 -0 0 0 -0 -0 0 nan
nan 0 -0 -0 0 -0 -0 -0 -0 -0 -0 -0 -0 -0 0 -0 0 0 -0 -0 -0 0 -0 -0 0 -0 -0 -0 0 -0 -0 -0 0 -0 -0 -1 -1 0 -0 -0 -0 -0 -0 nan
nan 0 0 0 0 -0 0 -0 -0 -0 -0 -0 -0 0 -0 0 0 -0 -0 -0 -0 0 -0 -0 -0 0 -0 0 0 0 -0 -0 0 -1 -1 -1 -0 -0 0 0 -0 -0 -0 nan
nan 0 0 0 -0 0 0 -0 -0 0 -0 -0 -0 -0 0 0 -0 -0 -0 -0 -0 -0 -0 -0 0 0 -0 -0 -0 0 -0 -0 -0 -1 -1 0 -1 -1 0 -0 -0 -0 -0 nan
nan 1 0 0 0 0 0 -0 0 -0 -0 -0 -0 0 0 -0 -0 -0 -0 -0 -0 -0 -0 -0 0 -0 -0 -0 0 -1 -0 0 0 0 -0 -0 -0 -0 -0 0 0 -0 -0 nan
nan 0 -0 0 0 0 -0 -0 -0 -0 -0 -0 -0 -0 0 -0 -0 -0 -0 -0 -0 -0 -0 -0 -0 -0 -0 -0 0 -0 0 -0 -0 -0 -0 -1 -0 0 -0 -1 -0 0 -0 nan
nan -0 -0 0 0 -0 -0 -0 0 0 0 -1 -0 -0 -0 -0 -0 -0 -0 -0 -0 -0 -0 -0 -0 -0 -0 0 -0 -0 -0 -1 -1 -0 -0 -0 -1 -0 -0 0 -0 -0 -0 nan
nan -0 -0 -0 -0 -0 -0 -0 0 0 -0 -0 -0 0 -0 -0 -0 -0 -0 -0 -0 -0 -0 -0 -0 -0 0 -1 -0 0 0 -0 -1 -1 -1 -0 -0 -1 -1 -0 -0 -0 -0 nan
nan -0 0 -0 0 -0 0 -0 -0 -0 -1 -0 -0 0 0 -0 -0 -0 -0 -1 -0 -0 -0 -0 -0 -0 1 1 -1 -0 -0 0 -0 -0 -1 -2 -1 -1 -1 -1 -1 -0 -0 nan
nan -0 -0 -0 0 0 -0 -1 -1 -1 -0 -0 -0 -0 0 0 -0 -0 -0 0 -0 0 -0 -0 0 -0 0 -1 -1 -1 -1 -1 -1 -1 -0 -0 -0 -1 -1 -1 -1 -1 -1 nan
nan -0 -0 -0 -0 -1 -2 -0 -1 -0 0 -0 -0 -0 0 0 0 0 -0 -0 0 -0 -0 -0 -0 -0 -1 -1 -1 -1 -1 -1 -1 -1 -1 -1 -1 -0 -0 -1 -1 -0 -0 nan
nan -0 -0 -1 -1 -2 -1 0 -0 0 0 0 -0 -0 -0 -0 0 -0 -0 -0 0 0 -0 -0 -0 -0 -0 -1 -1 -1 -1 -1 -1 -1 -1 -1 -1 -1 -1 -1 -0 -0 -1 nan
nan -1 -1 -0 -0 -0 -0 -0 -0 -0 0 0 0 0 -0 -0 -0 -0 -0 0 -0 0 0 0 -0 -2 -1 -1 -1 -1 -1 -1 -1 -1 -1 -1 -1 -1 -1 -0 -0 -0 -0 nan
nan -1 -0 0 -0 -0 0 0 0 0 -0 -0 -0 0 -0 -0 -0 -0 -0 -0 -0 -0 0 -0 1 -0 -1 -1 -1 -1 -1 -1 -1 -1 -1 -1 -0 -1 -1 -0 -0 -0 -0 nan
nan -1 -0 0 0 -0 -0 0 0 -0 0 -0 0 -0 -0 -0 0 -0 0 -0 -0 -0 -0 0 -0 -1 -1 -0 -1 -0 -1 -1 -1 -1 -0 -1 -1 -0 -1 -0 -0 -0 -0 nan
nan nan nan nan nan nan nan nan nan nan nan nan nan nan nan nan nan nan nan nan nan nan nan nan nan nan nan nan nan nan nan nan nan nan nan nan nan nan nan nan nan nan nan nan
Wind_Speed
36 39 39 39 41 43 30 8 2 17 15 6 3 2 2 2 2 4 2 3 0 0 1 2 0 1 1 2 2 2 1 4 1 5 2 1 1 1 0 2 3 2 3 3
34 37 38 38 36 39 32 12 6 11 12 3 2 1 3 2 2 3 2 2 2 2 1 1 1 1 1 4 3 1 1 1 2 6 4 2 4 3 1 2 2 1 3 4
34 36 35 35 32 32 24 9 4 7 12 6 3 1 0 1 1 2 1 2 2 2 2 2 2 2 3 3 7 6 1 2 4 4 5 2 2 2 2 3 2 2 3 3
36 35 31 31 32 29 20 11 2 2 4 4 5 1 0 2 1 1 4 1 2 3 1 3 1 2 4 3 9 5 3 2 2 2 3 2 3 1 1 3 3 3 3 5
36 29 27 28 29 27 13 5 5 4 4 7 4 3 1 1 0 2 2 2 2 2 3 6 4 2 1 2 5 4 4 0 1 2 1 1 2 3 4 3 2 3 1 2
32 29 27 27 27 25 11 12 7 2 4 3 1 2 1 0 2 1 1 1 2 2 1 2 3 4 1 1 1 3 3 2 2 2 4 2 2 3 1 1 2 5 2 6
28 28 27 26 27 24 15 14 6 1 2 2 2 4 4 1 0 2 1 2 2 1 3 1 2 1 2 1 1 2 2 2 2 1 3 2 4 3 3 1 2 4 1 4
27 28 28 28 26 24 16 13 11 3 1 3 3 9 3 3 4 3 2 2 3 4 1 3 3 3 2 4 3 2 3 3 2 2 1 2 2 1 2 3 3 4 4 5
27 31 32 30 28 17 12 16 14 3 3 3 5 3 5 1 2 2 2 3 4 4 1 3 2 1 2 3 2 3 3 4 3 2 3 2 3 4 2 1 3 4 7 8
28 34 32 30 25 15 12 11 11 6 5 9 8 4 2 3 2 0 2 5 4 5 2 3 2 1 1 2 2 3 3 3 2 1 1 2 3 4 5 4 4 3 9 13
32 35 32 25 17 15 10 7 6 6 6 10 11 9 9 6 7 2 5 3 4 3 4 2 1 2 1 2 1 1 1 2 1 1 3 1 7 4 4 3 4 5 5 9
32 35 27 19 21 16 14 11 11 12 9 7 10 13 12 10 8 8 5 2 2 1 3 1 1 1 2 2 0 2 2 4 3 4 2 2 7 6 9 7 8 8 10 12
29 31 23 16 18 17 12 17 13 14 10 11 8 9 10 8 8 7 4 3 4 2 4 3 1 3 2 2 2 1 5 2 1 4 4 6 23 7 3 16 16 15 16 16
27 27 21 15 16 14 9 13 16 6 5 5 7 11 13 13 10 8 7 5 1 2 1 3 2 2 3 2 3 3 2 3 2 4 6 18 4 9 19 20 20 19 22 23
23 20 18 15 15 9 5 7 18 9 4 4 3 7 14 12 12 11 8 5 5 4 3 4 0 2 3 2 2 2 0 3 2 4 12 10 23 30 33 30 22 20 22 22
25 17 10 12 12 11 4 4 12 8 6 4 2 4 11 11 10 12 13 9 7 5 4 3 3 3 2 3 1 3 2 3 5 7 22 27 33 31 21 20 31 22 19 16
24 11 11 12 13 14 9 5 6 8 5 3 4 2 6 17 11 9 9 11 8 5 3 4 2 3 4 2 1 2 4 8 17 15 22 29 16 26 36 29 24 19 21 20
17 7 9 11 11 12 13 17 16 7 6 6 3 4 4 16 7 5 9 5 4 7 3 2 4 2 3 1 2 3 8 20 23 26 30 31 33 28 24 24 23 22 22 22
9 4 8 7 7 6 6 9 13 17 10 5 5 3 3 11 9 6 4 4 3 3 3 2 3 2 1 4 8 12 15 23 32 35 34 29 27 31 30 25 24 24 25 24
7 5 4 3 7 7 5 4 4 5 7 6 4 7 3 9 6 7 6 4 1 1 2 7 2 2 4 16 18 15 27 36 32 30 31 36 35 31 29 29 27 26 27 26
4 3 4 6 8 7 5 5 7 8 5 7 7 8 4 5 2 2 5 1 2 3 3 2 2 2 4 27 23 26 32 31 26 28 32 30 29 31 31 30 26 27 27 25
6 3 4 6 7 5 7 2 5 5 2 9 9 11 6 4 4 2 5 1 3 2 7 3 3 3 22 30 30 32 33 31 35 33 31 31 30 29 28 28 27 25 23 22
4 3 2 6 6 9 5 5 4 4 7 7 17 8 5 3 3 2 3 4 3 4 3 2 4 14 31 29 35 36 35 37 34 33 30 30 30 28 27 27 24 22 20 18
3 4 6 3 4 0 3 3 3 6 7 18 17 5 3 3 4 2 3 2 2 4 5 3 3 29 30 36 36 34 37 34 34 33 32 32 30 29 26 24 22 20 19 16
4 4 3 2 0 1 4 5 7 6 10 10 5 4 3 4 3 3 2 7 4 2 3 3 26 31 36 37 37 36 33 33 32 31 31 28 26 26 25 22 20 17 15 13
3 5 3 3 1 1 4 7 8 11 11 2 1 1 4 3 1 5 1 3 3 4 6 26 27 35 34 36 34 30 31 30 29 29 27 26 27 28 24 23 21 18 16 13
3 3 5 3 2 2 5 9 11 10 4 2 2 4 4 1 4 4 2 3 3 20 25 24 31 29 32 33 32 32 31 29 27 27 27 28 28 23 21 22 24 21 16 13
Wind_Direction
355 354 357 359 1 2 5 352 22 354 351 46 42 72 117 94 26 33 44 99 161 317 301 347 93 126 213 330 306 349 3 144 293 234 264 164 124 113 128 119 288 45 140 269
352 350 353 356 0 3 356 347 321 352 8 59 41 40 56 67 56 42 43 59 25 40 310 278 15 91 191 5 19 161 303 346 14 348 357 30 58 359 44 61 79 229 130 244
349 350 352 354 360 5 360 356 3 360 48 55 84 58 105 124 47 70 55 60 70 48 26 3 295 7 26 2 360 16 88 110 155 189 213 169 13 1 41 104 104 187 208 167
348 351 356 355 355 5 13 17 17 8 326 7 352 338 28 148 211 76 40 86 69 136 46 340 17 6 343 35 7 21 79 154 160 250 234 173 174 140 147 109 211 147 247 169
347 355 355 356 353 3 16 12 357 321 286 302 313 345 222 161 111 95 329 121 342 162 161 179 238 103 59 19 339 27 355 306 115 324 254 188 94 105 111 113 148 76 179 28
351 357 359 356 348 0 1 350 319 253 300 335 14 276 332 14 115 26 96 63 51 348 333 202 258 231 161 217 95 358 56 79 50 293 5 46 352 227 148 164 190 147 145 222
356 358 356 352 348 350 338 338 319 187 289 22 357 340 337 36 94 164 34 17 86 358 322 43 97 117 111 103 10 38 41 67 86 226 15 29 256 255 227 158 212 210 226 184
358 354 347 340 337 340 330 331 341 266 268 338 2 10 10 55 43 42 28 3 339 331 70 56 36 6 50 17 55 80 65 98 46 94 175 283 53 11 137 139 274 198 165 169
354 346 346 345 339 343 335 343 333 261 96 40 353 358 1 68 27 7 12 351 354 2 70 64 84 60 214 10 45 118 83 84 107 63 92 47 268 319 23 114 340 213 190 179
349 348 347 346 356 355 355 342 333 44 83 37 23 42 353 9 18 131 335 342 356 2 37 58 67 326 239 51 43 333 358 360 87 2 111 330 320 335 329 69 250 322 222 206
346 350 352 358 5 354 1 30 24 29 91 54 40 45 42 12 12 52 338 348 3 26 57 87 13 71 243 79 274 212 130 82 325 66 54 321 359 346 110 248 295 273 238 208
350 353 8 13 19 24 21 50 46 85 89 81 66 56 43 27 17 352 342 354 356 45 86 19 83 75 76 135 342 355 25 163 204 156 213 320 328 296 316 318 292 268 250 248
349 357 12 10 15 22 57 63 81 97 93 82 61 21 33 32 28 356 349 14 15 42 59 128 150 86 100 96 271 60 331 20 131 40 308 293 316 312 333 337 308 296 289 275
352 354 2 16 21 40 70 51 37 79 95 94 49 49 45 31 27 8 351 329 318 189 105 76 101 98 23 201 173 123 213 357 335 276 315 335 37 324 312 312 302 292 293 283
355 350 351 4 20 30 34 38 32 69 83 110 108 43 36 29 21 22 19 35 71 60 62 48 47 58 73 19 81 358 200 192 103 245 297 283 288 309 308 308 305 303 293 277
354 355 5 23 15 10 2 9 24 64 74 100 71 84 33 19 22 29 41 54 53 56 57 69 61 41 46 87 156 239 237 281 289 285 315 306 306 304 308 303 304 305 292 282
354 16 49 36 39 53 58 53 26 51 68 84 89 23 11 13 18 23 32 43 43 53 67 52 33 31 13 92 155 190 335 329 325 325 322 317 310 306 305 306 302 292 287 287
2 52 56 50 49 59 63 59 50 47 57 51 58 319 351 11 3 14 12 17 32 40 55 49 20 324 11 16 256 338 326 335 335 325 321 309 307 306 310 308 306 296 289 290
25 85 39 31 26 33 38 48 53 53 52 82 68 342 308 348 13 352 354 0 43 14 58 34 353 328 17 277 325 310 338 341 328 323 322 326 318 313 313 311 304 299 296 295
52 41 21 22 359 13 39 34 28 36 43 55 75 4 301 333 335 8 358 16 51 51 279 324 76 259 12 5 345 322 334 330 330 328 325 325 320 317 313 310 307 301 299 299
66 46 37 15 19 25 38 41 36 4 37 14 2 351 308 338 14 283 10 236 345 41 292 87 331 313 11 354 353 341 330 332 326 323 322 323 317 313 310 309 304 298 298 295
74 96 52 29 20 33 67 360 357 45 4 349 347 333 319 312 319 305 355 90 28 262 332 59 324 256 350 346 340 336 334 334 332 333 327 325 322 320 314 311 309 306 301 294
56 47 52 10 4 42 66 346 320 347 356 342 340 323 320 307 335 48 41 46 253 316 39 238 229 342 344 341 339 336 336 335 336 335 334 331 327 325 325 320 317 311 303 300
51 34 24 70 353 149 183 201 225 295 290 324 328 304 339 326 359 357 51 235 39 22 13 277 276 342 337 337 337 336 336 339 337 339 340 339 339 337 337 336 330 320 311 304
66 42 57 53 287 245 318 307 320 309 313 328 315 280 338 350 44 38 12 9 349 193 255 264 330 331 334 336 338 340 339 339 341 342 342 346 350 350 346 347 346 343 333 320
60 69 76 19 203 359 327 331 333 342 346 359 333 30 42 9 77 39 185 95 251 273 301 320 326 329 336 338 342 340 342 343 343 344 350 354 357 350 352 356 358 354 351 347
66 87 58 9 316 342 337 330 334 343 357 52 46 55 222 305 30 5 172 196 253 312 317 319 333 337 339 343 343 345 348 348 351 353 356 356 349 352 359 2 7 9 5 358
Height
1518 1510 1502 1494 1486 1476 1468 1461 1459 1457 1452 1453 1461 1467 1467 1469 1471 1470 1471 1472 1473 1474 1474 1475 1474 1475 1474 1473 1473 1473 1473 1488 1490 1486 1481 1481 1482 1479 1478 1468 1476 1480 1491 1508
1518 1511 1503 1496 1489 1481 1470 1466 1462 1460 1454 1464 1469 1468 1470 1471 1472 1473 1472 1473 1474 1474 1475 1478 1474 1473 1473 1473 1472 1475 1473 1484 1499 1487 1484 1481 1489 1495 1495 1488 1486 1497 1486 1508
1519 1511 1504 1497 1489 1482 1475 1470 1469 1464 1463 1468 1470 1470 1471 1472 1473 1473 1473 1474 1474 1475 1476 1477 1478 1475 1474 1474 1473 1471 1472 1483 1483 1494 1492 1489 1489 1489 1503 1494 1492 1504 1495 1499
1517 1511 1505 1497 1492 1487 1481 1478 1479 1478 1477 1472 1474 1472 1471 1472 1473 1474 1474 1475 1476 1480 1487 1479 1478 1478 1476 1475 1475 1473 1475 1484 1480 1482 1480 1481 1482 1481 1497 1501 1510 1491 1494 1492
1516 1510 1503 1497 1492 1485 1483 1484 1484 1479 1477 1475 1474 1473 1472 1472 1474 1475 1476 1478 1477 1478 1485 1486 1492 1485 1480 1481 1478 1478 1478 1486 1477 1478 1472 1472 1477 1478 1482 1491 1509 1509 1510 1493
1516 1510 1505 1501 1493 1488 1484 1482 1481 1479 1476 1475 1476 1477 1473 1474 1474 1476 1476 1477 1479 1478 1479 1479 1480 1480 1481 1482 1483 1484 1487 1490 1489 1486 1475 1474 1482 1484 1485 1491 1497 1493 1493 1490
1516 1511 1506 1500 1495 1491 1486 1482 1479 1478 1477 1476 1476 1476 1476 1475 1476 1479 1478 1478 1479 1480 1479 1479 1480 1480 1481 1482 1482 1483 1485 1494 1495 1493 1485 1497 1484 1481 1480 1481 1487 1489 1488 1488
1516 1511 1506 1500 1494 1490 1485 1482 1480 1477 1480 1478 1477 1478 1477 1477 1478 1478 1479 1479 1480 1478 1478 1484 1487 1485 1483 1485 1483 1484 1485 1494 1503 1501 1499 1487 1480 1481 1482 1485 1483 1482 1484 1486
1515 1510 1502 1496 1490 1487 1483 1482 1480 1477 1479 1483 1482 1481 1481 1482 1481 1480 1480 1480 1479 1479 1478 1482 1493 1492 1497 1490 1485 1486 1485 1490 1495 1500 1498 1485 1489 1483 1481 1481 1485 1480 1482 1484
1515 1508 1501 1494 1487 1483 1484 1482 1480 1479 1481 1485 1484 1484 1486 1484 1483 1484 1482 1481 1480 1479 1484 1487 1497 1497 1494 1496 1496 1492 1490 1495 1500 1497 1504 1489 1486 1484 1482 1492 1496 1483 1483 1483
1514 1507 1499 1493 1489 1486 1484 1483 1482 1481 1484 1488 1488 1488 1488 1486 1487 1489 1485 1484 1483 1483 1490 1491 1490 1494 1499 1499 1500 1501 1502 1505 1503 1501 1505 1498 1487 1485 1492 1490 1484 1484 1482 1482
1513 1505 1499 1495 1490 1488 1486 1484 1483 1483 1485 1491 1492 1492 1492 1492 1491 1490 1488 1489 1486 1486 1489 1491 1491 1488 1498 1504 1509 1501 1505 1506 1511 1505 1496 1490 1489 1488 1487 1486 1485 1484 1483 1482
1513 1508 1502 1499 1495 1489 1488 1487 1487 1487 1488 1493 1494 1494 1495 1494 1492 1491 1491 1490 1489 1488 1487 1489 1492 1497 1496 1508 1508 1507 1501 1500 1504 1503 1495 1491 1486 1486 1486 1486 1484 1483 1481 1480
1515 1510 1504 1500 1497 1495 1493 1490 1489 1489 1490 1494 1501 1498 1496 1495 1493 1492 1491 1489 1488 1489 1489 1489 1493 1496 1496 1505 1503 1506 1505 1502 1508 1504 1494 1489 1486 1487 1485 1483 1481 1479 1477 1475
1514 1509 1505 1501 1498 1497 1496 1493 1491 1489 1493 1496 1500 1500 1499 1497 1495 1493 1491 1490 1489 1490 1491 1493 1500 1497 1498 1501 1502 1508 1501 1502 1507 1507 1495 1494 1487 1483 1481 1477 1474 1472 1469 1467
1513 1508 1505 1503 1500 1497 1498 1496 1496 1494 1493 1495 1500 1503 1502 1500 1498 1496 1493 1492 1492 1492 1494 1497 1499 1500 1501 1510 1513 1500 1500 1500 1499 1497 1493 1489 1483 1478 1475 1471 1468 1465 1463 1461
1512 1509 1506 1505 1504 1500 1499 1502 1500 1496 1495 1496 1502 1504 1503 1501 1499 1498 1497 1497 1496 1496 1498 1500 1501 1501 1501 1507 1510 1499 1499 1498 1497 1495 1490 1481 1476 1472 1468 1465 1461 1458 1457 1455
1511 1511 1509 1506 1506 1503 1503 1503 1501 1499 1498 1500 1507 1508 1505 1504 1503 1501 1500 1499 1499 1500 1501 1503 1503 1503 1502 1508 1499 1499 1498 1496 1492 1489 1485 1479 1471 1466 1462 1459 1455 1452 1450 1449
1511 1511 1509 1508 1508 1507 1507 1506 1505 1503 1506 1508 1515 1518 1514 1507 1506 1504 1503 1502 1504 1504 1503 1504 1506 1507 1513 1505 1501 1499 1497 1494 1488 1481 1475 1470 1465 1460 1456 1453 1450 1446 1443 1442
1511 1512 1512 1510 1511 1508 1507 1507 1508 1508 1510 1513 1518 1518 1516 1514 1508 1505 1505 1504 1507 1513 1508 1505 1508 1511 1505 1504 1502 1499 1495 1490 1483 1475 1467 1463 1458 1455 1450 1446 1443 1440 1437 1434
1512 1513 1514 1513 1511 1510 1508 1511 1513 1516 1520 1521 1520 1519 1517 1514 1514 1511 1509 1510 1510 1518 1511 1511 1513 1511 1504 1502 1499 1497 1491 1485 1479 1475 1468 1462 1456 1449 1444 1439 1437 1434 1430 1427
1514 1513 1514 1513 1513 1512 1514 1525 1523 1524 1528 1524 1522 1519 1517 1515 1513 1511 1511 1514 1514 1517 1512 1515 1518 1507 1503 1499 1495 1490 1485 1478 1472 1467 1461 1455 1449 1444 1438 1433 1429 1426 1423 1421
1514 1515 1516 1518 1520 1526 1535 1543 1536 1533 1527 1525 1523 1521 1518 1515 1514 1513 1514 1519 1522 1515 1522 1519 1512 1504 1501 1496 1490 1484 1478 1473 1466 1460 1455 1449 1443 1438 1433 1427 1423 1419 1416 1415
1515 1517 1525 1528 1535 1534 1534 1533 1533 1531 1527 1525 1522 1520 1519 1517 1516 1517 1520 1519 1519 1525 1528 1519 1506 1503 1498 1494 1488 1480 1473 1467 1461 1455 1449 1443 1438 1432 1428 1423 1418 1414 1412 1410
1519 1521 1532 1533 1532 1532 1534 1532 1530 1528 1526 1523 1521 1520 1520 1518 1520 1520 1522 1523 1531 1527 1523 1513 1507 1502 1497 1490 1483 1477 1471 1464 1458 1452 1446 1440 1435 1430 1425 1420 1416 1412 1408 1406
1524 1527 1531 1533 1532 1529 1532 1532 1528 1526 1523 1522 1522 1521 1525 1528 1527 1527 1537 1542 1541 1526 1518 1513 1507 1502 1495 1489 1482 1476 1469 1462 1456 1450 1445 1440 1434 1429 1424 1419 1415 1411 1408 1405
1528 1531 1531 1533 1534 1530 1531 1532 1529 1525 1523 1523 1522 1530 1531 1528 1536 1535 1531 1535 1527 1522 1516 1511 1506 1499 1493 1486 1480 1474 1466 1460 1454 1449 1444 1439 1434 1428 1423 1419 1415 1411 1408 1406